Poiana Brasov, Romania 16 day weather forecast

Slopes altitude range 1030 m - 1780m

Number of lifts: 11 Pistes: 20km

In some cases the lift and piste totals shown are for the ski domain (e.g. Three Valleys) rather than individual resort (e.g. Courchevel)

Overview

The 16 day weather forecast is fully updated 4 times every day.

    • Fri 18 JAN 2019
    • Fri 18
    • -2C 4C
    • Sat 19 JAN 2019
    • Sat 19
    • -5C -2C
    • Sun 20 JAN 2019
    • Sun 20
    • -3C 0C
    • Mon 21 JAN 2019
    • Mon 21
    • -5C -3C
    • Tue 22 JAN 2019
    • Tue 22
    • -8C -2C
    • Wed 23 JAN 2019
    • Wed 23
    • -1C 1C
    • Thu 24 JAN 2019
    • Thu 24
    • -3C 2C
    • Fri 25 JAN 2019
    • Fri 25
    • 0C 1C
    • Sat 26 JAN 2019
    • Sat 26
    • 0C 1C
    • Sun 27 JAN 2019
    • Sun 27
    • -2C -1C
    • Mon 28 JAN 2019
    • Mon 28
    • -4C -1C
    • Tue 29 JAN 2019
    • Tue 29
    • -4C -1C
    • Wed 30 JAN 2019
    • Wed 30
    • -7C -1C
    • Thu 31 JAN 2019
    • Thu 31
    • -8C 1C
    • Fri 01 FEB 2019
    • Fri 01
    • -7C 1C
    • Sat 02 FEB 2019
    • Sat 02
    • -5C 1C

Date:

Time Type 0°C level Temp Chill Snow Cloud Speed Gust Dir Press
3:00 744m -3°C -3_3 0cm 70% 3mph 4mph 1015mB
6:00 805m -3°C -3_5 0cm 39% 5mph 6mph 1015mB
9:00 1798m -2°C -2_5 0cm 0% 5mph 10mph 1015mB
12:00 1706m 4°C 4_5 0cm 5% 5mph 12mph 1014mB
15:00 1000m 4°C 4_3 0cm 89% 3mph 5mph 1014mB
18:00 781m 4°C 4_3 0cm 89% 3mph 3mph 1015mB
21:00 837m -2°C -2_4 1cm 100% 4mph 6mph 1017mB
0:00 709m -3°C -3_6 1cm 100% 6mph 11mph 1019mB
3:00 545m -4°C -4_5 1cm 100% 5mph 10mph 1020mB
6:00 390m -5°C -5_3 1cm 99% 3mph 6mph 1022mB
9:00 780m -5°C -5_2 1cm 91% 2mph 2mph 1024mB
12:00 913m -2°C -2_4 1cm 93% 4mph 7mph 1023mB
15:00 645m -2°C -2_6 0cm 100% 6mph 11mph 1023mB
18:00 418m -2°C -2_7 0cm 98% 7mph 14mph 1024mB
21:00 386m -5°C -5_8 1cm 99% 8mph 16mph 1024mB
0:00 402m -5°C -5_9 1cm 99% 9mph 17mph 1023mB
3:00 581m -5°C -5_9 0cm 100% 9mph 18mph 1021mB
6:00 750m -5°C -5_9 0cm 100% 9mph 19mph 1020mB
9:00 1065m -3°C -3_10 0cm 99% 10mph 19mph 1019mB
12:00 1152m 0°C 0_8 0cm 100% 8mph 15mph 1017mB
15:00 974m 0°C 0_5 1cm 98% 5mph 9mph 1016mB
18:00 807m 0°C 0_3 1cm 98% 3mph 3mph 1016mB
21:00 825m -2°C -2_4 1cm 100% 4mph 7mph 1017mB
0:00 708m -3°C -3_7 1cm 98% 7mph 13mph 1017mB
3:00 521m -4°C -4_6 0cm 100% 6mph 12mph 1018mB
6:00 311m -6°C -6_5 0cm 100% 5mph 9mph 1020mB
9:00 630m -5°C -5_5 0cm 98% 5mph 8mph 1021mB
12:00 706m -3°C -3_4 1cm 99% 4mph 5mph 1022mB
15:00 520m -3°C -3_2 1cm 100% 2mph 3mph 1024mB
18:00 503m -3°C -3_3 1cm 100% 3mph 5mph 1026mB
21:00 424m -5°C -5_6 1cm 98% 6mph 11mph 1027mB
0:00 204m -6°C -6_7 1cm 97% 7mph 14mph 1027mB
3:00 111m -7°C -7_8 0cm 100% 8mph 14mph 1025mB
6:00 14m -8°C -8_8 0cm 100% 8mph 14mph 1025mB
9:00 496m -8°C -8_9 0cm 100% 9mph 17mph 1023mB
12:00 878m -2°C -2_10 0cm 100% 10mph 18mph 1019mB
15:00 647m -2°C -2_10 0cm 100% 10mph 20mph 1016mB
18:00 663m -2°C -2_11 0cm 100% 11mph 21mph 1014mB
21:00 676m -3°C -3_10 0cm 100% 10mph 21mph 1012mB
0:00 843m -3°C -3_10 0cm 100% 10mph 21mph 1010mB
3:00 909m -2°C -2_9 1cm 100% 9mph 17mph 1006mB
6:00 975m -2°C -2_8 2cm 100% 8mph 15mph 1004mB
9:00 1126m -1°C -1_7 2cm 100% 7mph 14mph 1003mB
12:00 1247m 1°C 1_5 2cm 100% 5mph 10mph 1001mB
15:00 975m 1°C 1_5 0cm 96% 5mph 7mph 1001mB
18:00 664m 1°C 1_5 0cm 83% 5mph 7mph 1002mB
21:00 672m -3°C -3_5 0cm 48% 5mph 7mph 1002mB
0:00 672m -3°C -3_5 0cm 63% 5mph 7mph 1001mB
3:00 669m -3°C -3_5 0cm 94% 5mph 7mph 999mB
6:00 628m -3°C -3_6 0cm 95% 6mph 7mph 999mB
9:00 1424m -3°C -3_6 0cm 99% 6mph 12mph 998mB
12:00 1368m 2°C 2_6 0cm 99% 6mph 11mph 995mB
15:00 1399m 2°C 2_5 0cm 90% 5mph 6mph 995mB
18:00 1416m 2°C 2_9 0cm 95% 9mph 20mph 994mB
21:00 1457m 1°C 1_8 1cm 100% 8mph 20mph 994mB
0:00 1374m 0°C 0_7 0cm 100% 7mph 13mph 993mB
3:00 1006m -1°C -1_4 0cm 81% 4mph 5mph 992mB
6:00 977m -2°C -2_4 1cm 91% 4mph 5mph 991mB
9:00 854m 0°C 0_7 2cm 100% 7mph 19mph 991mB
12:00 802m 1°C 1_13 0cm 100% 13mph 28mph 993mB
15:00 532m 1°C 1_4 0cm 66% 4mph 5mph 997mB
18:00 306m 1°C 1_3 0cm 45% 3mph 4mph 1001mB
21:00 266m -3°C -3_3 0cm 7% 3mph 4mph 1002mB
0:00 333m -3°C -3_4 0cm 35% 4mph 4mph 1003mB
3:00 566m -2°C -2_5 0cm 100% 5mph 6mph 1002mB
6:00 1033m -2°C -2_8 0cm 100% 8mph 20mph 1002mB
9:00 772m 0°C 0_12 0cm 100% 12mph 30mph 1001mB
12:00 738m 1°C 1_11 0cm 100% 11mph 25mph 1000mB
15:00 560m 1°C 1_10 0cm 99% 10mph 23mph 1000mB
18:00 569m 1°C 1_10 0cm 99% 10mph 23mph 998mB
21:00 589m -1°C -1_12 0cm 100% 12mph 28mph 996mB
0:00 643m -1°C -1_8 0cm 100% 8mph 16mph 996mB
3:00 514m -1°C -1_4 1cm 90% 4mph 5mph 997mB
6:00 517m -1°C -1_7 1cm 82% 7mph 17mph 999mB
9:00 451m -2°C -2_5 0cm 70% 5mph 9mph 1002mB
12:00 552m -1°C -1_4 0cm 58% 4mph 6mph 1003mB
15:00 260m -1°C -1_2 0cm 19% 2mph 3mph 1005mB
18:00 124m -1°C -1_2 0cm 19% 2mph 2mph 1007mB
Morning 0.177083mm 0 147m -5°C -5_5 0cm 66% 5mph 8mph 1010mB
Afternoon 0.09375mm 0 277m -1°C -1_3 1cm 90% 3mph 4mph 1011mB
Morning 0.015625mm 0 223m -5°C -5_10 0cm 59% 10mph 20mph 1008mB
Afternoon 0.00520833mm 0 345m -1°C -1_5 1cm 97% 5mph 8mph 1008mB
Morning 0mm 0 0m -7°C -7_7 0cm 57% 7mph 13mph 1015mB
Afternoon 0.0104167mm 0 0m -1°C -1_1 0cm 11% 1mph 2mph 1020mB
Morning 0mm 0 0m -9°C -9_2 0cm 0% 2mph 2mph 1024mB
Afternoon 0mm 0 7m 1°C 1_4 0cm 6% 4mph 5mph 1026mB
Morning 0mm 0 0m -8°C -8_3 0cm 15% 3mph 4mph 1028mB
Afternoon 0.0104167mm 0 12m 1°C 1_5 0cm 31% 5mph 6mph 1027mB
Morning 0.00520833mm 0 7m -6°C -6_4 0cm 69% 4mph 6mph 1026mB
Afternoon 0.0104167mm 0 22m 1°C 1_5 0cm 48% 5mph 6mph 1029mB

16 day outlook at a glance

Forecast issued: 18/01/2019 00:19:48

Chat

Your comments and questions. In a resort? Let us know what it's like!


Characters left 250

For terms and conditions see Readers Comments on the Cookie and privacy policy page.